Dewpoint
-6 -7 -11 -12 -11 -10 -8 -7 -6 -5 -6 -6 -5 -2 -2 -4 -6 -4 -4 -0 0 -1 -4 -8 -9 -13 -13 -14 -6 -16 -11 -9
-4 -9 -10 -9 -7 -7 -6 -4 -3 -4 -6 -4 -0 -0 -1 -5 -5 -2 1 -4 -6 -7 -8 -10 -15 -14 -14 -14 -6 -13 -13 -7
-5 -5 -5 -4 -4 -4 -3 -3 -3 -4 -4 -1 1 0 -2 -5 -6 -7 -7 -6 -5 -6 -8 -11 -14 -12 -12 -12 -12 -13 -12 -12
4 3 1 0 -1 -3 -3 -3 -3 -3 -1 1 1 -2 -1 -2 -6 -8 -7 -7 -7 -8 -10 -13 -12 -12 -12 -11 -11 -12 -10 -10
5 5 3 2 1 -1 -2 -2 -3 -2 0 2 1 1 -0 -2 -6 -10 -12 -12 -11 -11 -12 -12 -11 -11 -12 -11 -10 -10 -9 -9
5 2 1 0 -0 -1 -2 -2 -2 -1 1 1 1 -0 -3 -7 -10 -14 -15 -15 -13 -12 -12 -11 -11 -11 -13 -12 -10 -9 -8 -8
5 2 1 0 -1 -1 -1 -2 -1 -0 1 1 0 -3 -5 -8 -10 -13 -14 -13 -11 -11 -11 -11 -11 -12 -13 -12 -10 -8 -8 -8
3 0 -0 -0 0 -0 -1 -1 0 2 2 -1 -2 -3 -5 -8 -9 -14 -15 -13 -11 -11 -10 -9 -9 -10 -12 -13 -11 -9 -8 -9
1 1 2 3 -0 -1 -1 -1 1 1 -2 -3 -3 -4 -6 -8 -10 -14 -15 -15 -14 -12 -10 -9 -9 -10 -12 -12 -13 -13 -12 -10
3 4 3 1 0 -0 -1 -1 -1 -3 -3 -3 -3 -4 -7 -9 -10 -12 -12 -12 -14 -12 -11 -10 -8 -11 -12 -13 -14 -12 -13 -9
4 2 1 -1 -1 -2 -2 -1 -3 -4 -4 -3 -4 -6 -8 -9 -10 -10 -10 -11 -11 -13 -11 -8 -9 -10 -11 -13 -14 -12 -11 -9
2 1 -0 -0 -1 -2 -2 -3 -4 -3 -3 -4 -7 -8 -9 -9 -9 -9 -9 -9 -9 -11 -8 -7 -7 -8 -10 -13 -15 -12 -12 -9
-0 -1 -2 -2 -1 -1 -2 -3 -5 -5 -7 -8 -8 -9 -9 -9 -9 -8 -8 -8 -9 -9 -7 -7 -7 -8 -8 -11 -14 -14 -9 -9
-1 -2 -2 -1 -1 -2 -3 -6 -7 -8 -8 -9 -9 -9 -9 -9 -8 -8 -8 -9 -9 -8 -7 -8 -7 -7 -7 -8 -9 -12 -10 -10
-2 -1 -1 -1 -3 -6 -9 -12 -13 -12 -11 -9 -10 -9 -9 -8 -8 -8 -8 -9 -9 -8 -8 -8 -8 -8 -10 -8 -8 -8 -10 -11
-2 -1 -1 -3 -5 -6 -9 -10 -11 -10 -10 -12 -12 -12 -13 -13 -11 -10 -12 -12 -12 -11 -9 -9 -9 -10 -12 -12 -14 -12 -10 -10
-1 -1 -3 -4 -5 -8 -9 -10 -11 -11 -12 -12 -13 -14 -15 -15 -14 -13 -13 -13 -11 -11 -10 -10 -10 -10 -11 -12 -13 -20 -11 -9
-1 -2 -4 -5 -7 -9 -10 -11 -12 -13 -14 -15 -16 -16 -16 -15 -14 -14 -13 -13 -13 -14 -13 -10 -10 -10 -9 -10 -13 -20 -17 -10
-2 -3 -4 -6 -9 -10 -10 -11 -13 -14 -15 -16 -15 -15 -14 -13 -13 -12 -12 -12 -13 -13 -14 -13 -11 -9 -9 -13 -16 -22 -12 -10
-1 -3 -5 -7 -10 -10 -10 -13 -16 -16 -16 -15 -14 -14 -13 -12 -12 -12 -12 -13 -13 -13 -13 -13 -11 -10 -12 -15 -20 -12 -9 -9
Wind_Speed
7 5 7 6 6 7 7 7 8 10 11 13 15 16 18 16 16 16 16 14 12 14 16 18 18 17 15 13 13 13 9 6
5 8 9 8 7 6 7 9 11 13 12 14 17 17 17 16 14 13 9 12 15 18 19 19 19 19 17 13 10 10 8 4
8 8 8 7 6 7 7 9 11 12 12 15 19 17 17 17 17 15 16 17 18 20 21 21 19 17 15 13 12 9 9 9
10 7 5 4 6 6 6 9 11 13 13 16 18 16 19 19 17 18 18 19 20 21 22 19 18 17 15 13 13 9 7 7
10 5 4 5 6 6 6 9 12 13 15 20 20 19 19 20 19 19 21 22 22 22 20 19 19 19 16 13 13 10 8 7
9 7 3 2 5 5 7 11 12 14 18 21 22 21 21 23 22 22 21 22 22 20 20 21 21 20 17 15 15 15 13 11
9 6 3 0 2 4 8 9 11 16 20 22 19 19 24 25 26 25 23 22 21 21 21 22 22 21 18 16 17 17 18 18
10 8 5 1 4 6 7 9 14 19 21 18 16 18 23 26 28 26 22 22 21 21 22 22 22 22 21 19 18 18 19 20
11 6 1 5 5 5 7 11 18 18 16 16 16 18 22 25 28 25 22 21 20 20 19 21 23 24 23 21 18 16 15 17
8 2 5 3 4 6 7 14 15 15 15 16 17 20 22 26 26 24 22 22 23 21 22 23 24 26 26 23 20 16 11 9
2 2 3 4 5 7 13 14 15 15 15 14 16 19 22 25 25 25 24 25 26 25 22 22 26 27 27 26 19 12 7 2
3 4 5 6 8 12 13 15 15 14 11 11 15 17 18 22 24 25 26 28 29 25 22 23 25 27 29 29 19 11 10 5
5 6 7 9 13 15 16 17 15 13 12 16 18 17 16 19 21 23 26 29 28 22 21 23 25 27 31 32 25 17 3 10
8 9 10 14 16 18 18 16 14 14 14 17 19 19 17 17 20 24 26 27 25 23 24 26 24 25 27 24 17 16 3 15
9 10 14 16 17 16 14 13 14 15 18 20 21 19 19 20 22 23 24 24 24 23 23 21 22 23 23 16 10 7 31 15
9 12 15 17 19 21 21 21 20 19 20 19 18 19 20 21 21 22 23 23 22 20 20 20 21 21 18 16 20 20 21 20
11 13 14 18 21 22 21 21 19 18 19 20 21 22 22 21 21 21 21 22 20 21 21 21 19 19 19 23 30 30 25 23
11 15 16 19 21 20 21 22 21 21 22 23 24 24 23 21 21 20 20 22 21 24 22 21 21 22 23 27 34 33 29 24
12 14 16 18 18 20 22 24 22 21 22 23 23 24 24 21 21 22 22 23 23 24 24 22 22 23 26 34 38 34 26 24
12 11 15 17 18 21 22 24 21 21 22 21 22 23 23 21 21 22 21 23 23 25 26 26 24 26 33 38 35 29 23 21
Wind_Direction
169 127 112 106 76 67 54 44 35 30 24 25 16 4 358 357 355 349 353 357 4 358 349 337 334 336 336 335 348 333 314 297
120 106 96 85 76 66 52 44 38 23 25 20 10 358 351 345 344 355 359 344 335 330 331 329 323 322 323 325 336 341 329 269
123 108 95 79 64 48 42 41 30 23 19 7 355 345 340 337 332 330 327 328 328 327 325 323 323 320 316 310 314 321 338 320
120 113 84 34 23 23 13 24 19 14 3 354 349 346 342 342 335 330 325 323 324 324 325 322 322 322 315 304 305 308 313 322
125 107 61 28 19 5 1 7 7 360 351 345 342 339 343 347 344 331 325 326 329 328 324 321 325 323 316 303 291 285 285 291
146 140 123 45 9 355 359 357 356 346 338 339 338 344 348 349 345 338 330 328 331 328 324 324 326 326 321 302 283 276 276 277
167 162 144 71 357 348 352 352 350 338 334 333 337 344 351 351 350 343 334 332 333 331 326 326 328 329 325 310 293 284 279 277
169 146 119 45 326 326 340 343 336 328 327 334 338 342 346 346 346 343 335 333 333 330 329 330 332 332 327 318 304 292 289 287
136 111 97 306 304 328 334 327 329 328 331 336 339 340 342 342 344 345 346 344 336 331 329 331 334 337 334 331 324 310 296 296
138 237 332 307 313 320 318 324 328 326 331 331 334 334 339 340 344 349 351 350 349 337 334 335 339 338 339 338 337 325 306 308
282 23 321 320 325 328 323 328 326 325 331 327 323 331 336 337 341 347 347 348 348 344 339 340 342 341 343 340 341 329 309 335
16 340 335 331 331 327 328 325 325 326 322 315 323 330 332 333 339 343 345 346 345 344 341 341 341 340 339 338 344 332 296 188
13 355 345 338 339 340 344 346 341 333 331 331 334 335 331 334 335 337 338 340 341 339 336 334 338 339 339 339 345 347 272 212
359 358 360 354 351 353 346 336 331 334 338 337 338 335 333 334 330 329 332 333 335 335 334 334 335 336 339 339 340 349 272 299
10 9 1 357 358 355 356 349 339 333 338 337 339 337 336 330 326 327 331 334 332 332 332 334 334 336 338 342 339 319 321 316
15 5 1 360 3 1 359 356 352 348 342 342 340 337 334 331 328 328 332 333 334 337 337 334 332 335 344 347 335 317 307 308
9 1 2 9 6 1 358 356 354 351 347 345 343 342 342 339 339 342 342 343 341 337 331 329 330 328 333 332 332 323 305 283
355 0 7 8 5 3 3 1 354 349 347 345 344 344 345 347 346 347 347 349 346 346 337 328 324 323 325 323 322 315 298 288
1 8 6 5 4 2 2 360 354 351 349 347 348 350 351 352 349 348 344 345 341 344 342 330 324 321 319 318 316 309 295 281
2 9 7 1 360 0 358 355 357 357 355 355 354 350 348 343 340 339 338 339 335 337 335 337 328 317 315 314 312 306 295 280
Height
1549 1549 1550 1551 1552 1551 1551 1551 1551 1549 1547 1545 1543 1541 1539 1537 1535 1531 1529 1526 1525 1523 1521 1518 1515 1512 1510 1508 1506 1504 1502 1502
1553 1552 1552 1553 1554 1552 1552 1552 1551 1550 1548 1546 1544 1541 1539 1537 1533 1531 1528 1526 1524 1522 1519 1517 1514 1511 1509 1506 1504 1503 1501 1500
1554 1554 1554 1554 1554 1554 1554 1553 1551 1550 1549 1547 1544 1541 1538 1536 1533 1530 1527 1525 1522 1520 1517 1513 1511 1509 1507 1505 1502 1500 1500 1499
1555 1555 1555 1554 1554 1554 1554 1554 1552 1551 1550 1547 1544 1541 1537 1534 1531 1529 1526 1523 1520 1518 1515 1512 1509 1507 1505 1503 1501 1498 1497 1496
1557 1557 1557 1556 1554 1554 1553 1553 1551 1550 1548 1546 1544 1540 1536 1532 1530 1528 1525 1522 1518 1516 1513 1510 1506 1504 1502 1500 1498 1496 1494 1493
1558 1559 1558 1557 1556 1555 1553 1552 1551 1550 1548 1545 1542 1538 1534 1531 1529 1526 1522 1519 1516 1513 1510 1507 1504 1502 1500 1497 1494 1492 1491 1489
1560 1559 1558 1558 1557 1556 1553 1551 1550 1548 1547 1544 1540 1536 1533 1530 1527 1524 1521 1517 1514 1511 1508 1505 1502 1499 1496 1493 1491 1489 1487 1485
1560 1560 1560 1560 1559 1557 1554 1552 1550 1548 1545 1542 1540 1537 1534 1530 1527 1523 1519 1516 1512 1508 1505 1502 1499 1496 1493 1489 1487 1484 1482 1480
1562 1562 1562 1562 1560 1558 1555 1552 1549 1546 1543 1541 1538 1536 1533 1530 1526 1522 1518 1514 1511 1507 1503 1500 1496 1493 1489 1486 1482 1480 1477 1475
1564 1565 1564 1563 1560 1558 1555 1551 1548 1544 1542 1540 1537 1535 1532 1528 1524 1521 1517 1513 1509 1505 1501 1497 1493 1490 1486 1482 1479 1476 1474 1473
1566 1565 1564 1562 1559 1557 1554 1550 1547 1544 1542 1539 1537 1534 1530 1527 1522 1519 1516 1512 1507 1502 1499 1495 1491 1487 1483 1479 1476 1473 1471 1471
1567 1566 1564 1562 1559 1556 1553 1549 1546 1544 1541 1538 1535 1533 1529 1525 1521 1517 1513 1509 1505 1501 1497 1494 1490 1485 1481 1476 1473 1471 1468 1469
1568 1566 1564 1562 1557 1554 1551 1548 1545 1543 1540 1537 1534 1531 1528 1524 1520 1516 1512 1507 1503 1499 1495 1491 1487 1484 1479 1473 1469 1468 1465 1466
1568 1566 1563 1559 1556 1553 1551 1549 1546 1543 1540 1537 1533 1530 1527 1523 1519 1515 1510 1506 1501 1497 1493 1489 1486 1483 1478 1473 1468 1466 1465 1465
1568 1565 1562 1559 1557 1555 1553 1550 1547 1544 1540 1536 1532 1529 1525 1521 1517 1513 1508 1504 1499 1495 1491 1488 1484 1481 1478 1476 1472 1468 1463 1459
1568 1566 1563 1560 1558 1556 1552 1549 1546 1543 1539 1536 1532 1528 1524 1520 1515 1510 1506 1501 1496 1493 1489 1486 1482 1479 1476 1474 1473 1469 1465 1455
1568 1566 1564 1562 1559 1556 1553 1550 1547 1543 1540 1535 1531 1527 1522 1517 1513 1508 1504 1499 1495 1491 1487 1483 1480 1477 1473 1470 1467 1463 1461 1457
1569 1567 1566 1563 1561 1558 1554 1550 1546 1543 1538 1533 1529 1525 1520 1515 1511 1506 1502 1497 1493 1489 1484 1481 1477 1473 1470 1466 1462 1458 1453 1451
1571 1569 1567 1564 1562 1559 1555 1551 1547 1542 1537 1532 1527 1523 1518 1513 1509 1505 1500 1496 1491 1487 1482 1477 1473 1469 1465 1460 1455 1449 1446 1444
1571 1570 1568 1565 1562 1559 1555 1551 1546 1542 1537 1532 1527 1522 1517 1512 1508 1503 1498 1493 1489 1484 1479 1474 1469 1464 1459 1453 1446 1442 1438 1437